This demonstration page uses our WeatherBlox Daily Observations layout. Learn more.

Left ArrowRight Arrow

41.86663, -103.66717

Hourly Observations for January 5, 2015

Temp ( °F °C ) Dew Point ( °F °C ) Humidity (%) Winds ( mph kmh ) Pressure ( in mb ) Visibility ( mi km ) Precip ( " mm )
12:53 am 00:53 Clear -4 -20 -9 -22.8 79 79 E 6 9 30.63 1037 9 14 0.00 0.00
1:53 am 01:53 Clear -2 -18.9 -7 -21.7 79 79 E 7 11 30.59 1036 10 16 0.00 0.00
2:53 am 02:53 Mostly Clear -3 -19.4 -7 -21.7 82 82 ESE 8 13 30.55 1035 10 16 0.00 0.00
3:53 am 03:53 Cloudy -1 -18.3 -5 -20.6 82 82 ESE 16 26 30.47 1032 7 11 0.00 0.00
4:53 am 04:53 Clear 1 -17.2 -3 -19.4 83 83 ESE 16 26 30.40 1029 10 16 0.00 0.00
5:53 am 05:53 Mostly Clear 4 -15.6 -2 -18.9 76 76 E 18 30 30.33 1027 10 16 0.00 0.00
6:53 am 06:53 Partly Cloudy 5 -15 0 -17.8 79 79 ESE 17 28 30.27 1025 10 16 0.00 0.00
7:53 am 07:53 Mostly Cloudy 8 -13.3 2 -16.7 76 76 E 14 22 30.22 1023 10 16 0.00 0.00
8:53 am 08:53 Sunny 9 -12.8 3 -16.1 77 77 ESE 12 19 30.20 1023 10 16 0.00 0.00
9:53 am 09:53 Sunny 10 -12.2 4 -15.6 76 76 E 5 7 30.20 1023 10 16 0.00 0.00
10:53 am 10:53 Sunny 13 -10.6 6 -14.4 74 74 Calm 30.16 1022 10 16 0.00 0.00
11:53 am 11:53 Sunny 18 -7.8 10 -12.2 71 71 WNW 3 6 30.12 1020 10 16 0.00 0.00
12:53 pm 12:53 Sunny 38 3.3 27 -2.8 65 65 W 17 28 30.05 1018 10 16 0.00 0.00
1:53 pm 13:53 Sunny 44 6.7 31 -0.6 60 60 WNW 24 39 30.05 1018 10 16 0.00 0.00
2:53 pm 14:53 Sunny 44 6.7 31 -0.6 60 60 WNW 22 35 30.08 1019 10 16 0.00 0.00
3:53 pm 15:53 Sunny 43 6.1 31 -0.6 63 63 WNW 16 26 30.13 1020 10 16 0.00 0.00
4:53 pm 16:53 Clear 38 3.3 31 -0.6 76 76 NW 8 13 30.16 1021 10 16 0.00 0.00
5:53 pm 17:53 Cloudy 37 2.8 31 -0.6 79 79 N 29 46 30.23 1024 10 16 0.00 0.00
6:00 pm 18:00 Cloudy 37 3 30 -1 75 75 N 25 41 30.15 1021 10 16 0.00 0.00
6:53 pm 18:53 Cloudy 36 2.2 28 -2.2 73 73 N 23 37 30.30 1026 10 16 0.00 0.00
7:53 pm 19:53 Cloudy 35 1.7 25 -3.9 67 67 NW 10 17 30.36 1028 10 16 0.00 0.00
8:53 pm 20:53 Cloudy 33 0.6 24 -4.4 70 70 NW 13 20 30.41 1030 10 16 0.00 0.00
9:53 pm 21:53 Cloudy 32 0 25 -3.9 75 75 WNW 8 13 30.42 1030 10 16 0.00 0.00
10:53 pm 22:53 Mostly Cloudy 29 -1.7 23 -5 78 78 NW 6 9 30.44 1031 10 16 0.00 0.00
11:53 pm 23:53 Clear 25 -3.9 20 -6.7 81 81 WNW 9 15 30.44 1031 10 16 0.00 0.00

Powered by AerisWeather